Location: C.E.K. Mees Observatory
(42.7003°N, 77.4088°W)
Time: 16:50:06
(UTC-04:00)

Envisat - Pass Details

Date: 14 October 2017
Orbit: 764 x 766 km, 98.2° (Epoch: 17 October)

Event Time Altitude Azimuth Distance (km) Brightness Sun altitude
Exits shadow 20:20:01 41° 63° (ENE) 1,103 3.4 -21.2°
Drops below altitude 10° 20:24:33 10° 1° (N) 2,309 5.6 -22.1°
Sets 20:26:57 0° 354° (N) 3,240 6.4 -22.5°
